Year,Month,Day,Hour,Minute,Value (Times are PST for temperature in C)
2008,10,18,00,00,8.70
2008,10,18,00,01,8.70
2008,10,18,00,02,8.70
2008,10,18,00,03,8.70
2008,10,18,00,04,8.70
2008,10,18,00,05,8.70
2008,10,18,00,06,8.70
2008,10,18,00,07,8.70
2008,10,18,00,08,8.70
2008,10,18,00,09,8.60
2008,10,18,00,10,8.60
2008,10,18,00,11,8.60
2008,10,18,00,12,8.50
2008,10,18,00,13,8.50
2008,10,18,00,14,8.50
2008,10,18,00,15,8.50
2008,10,18,00,16,8.40
2008,10,18,00,17,8.40
2008,10,18,00,18,8.40
2008,10,18,00,19,8.40
2008,10,18,00,20,8.40
2008,10,18,00,21,8.40
2008,10,18,00,22,8.40
2008,10,18,00,23,8.40
2008,10,18,00,24,8.40
2008,10,18,00,25,8.40
2008,10,18,00,26,8.40
2008,10,18,00,27,8.40
2008,10,18,00,28,8.30
2008,10,18,00,29,8.30
2008,10,18,00,30,8.30
2008,10,18,00,31,8.30
2008,10,18,00,32,8.30
2008,10,18,00,33,8.30
2008,10,18,00,34,8.30
2008,10,18,00,35,8.30
2008,10,18,00,36,8.30
2008,10,18,00,37,8.30
2008,10,18,00,38,8.30
2008,10,18,00,39,8.30
2008,10,18,00,40,8.20
2008,10,18,00,41,8.30
2008,10,18,00,42,8.30
2008,10,18,00,43,8.30
2008,10,18,00,44,8.30
2008,10,18,00,45,8.30
2008,10,18,00,46,8.30
2008,10,18,00,47,8.30
2008,10,18,00,48,8.20
2008,10,18,00,49,8.20
2008,10,18,00,50,8.20
2008,10,18,00,51,8.20
2008,10,18,00,52,8.20
2008,10,18,00,53,8.20
2008,10,18,00,54,8.20
2008,10,18,00,55,8.20
2008,10,18,00,56,8.20
2008,10,18,00,57,8.20
2008,10,18,00,58,8.20
2008,10,18,00,59,8.20
2008,10,18,01,00,8.20
2008,10,18,01,01,8.20
2008,10,18,01,02,8.20
2008,10,18,01,03,8.20
2008,10,18,01,04,8.20
2008,10,18,01,05,8.10
2008,10,18,01,06,8.10
2008,10,18,01,07,8.00
2008,10,18,01,08,8.00
2008,10,18,01,09,8.00
2008,10,18,01,10,7.90
2008,10,18,01,11,7.90
2008,10,18,01,12,7.90
2008,10,18,01,13,7.80
2008,10,18,01,14,7.80
2008,10,18,01,15,7.80
2008,10,18,01,16,7.80
2008,10,18,01,17,7.80
2008,10,18,01,18,7.70
2008,10,18,01,19,7.70
2008,10,18,01,20,7.70
2008,10,18,01,21,7.70
2008,10,18,01,22,7.70
2008,10,18,01,23,7.70
2008,10,18,01,24,7.70
2008,10,18,01,25,7.70
2008,10,18,01,26,7.70
2008,10,18,01,27,7.70
2008,10,18,01,28,7.70
2008,10,18,01,29,7.70
2008,10,18,01,30,7.70
2008,10,18,01,31,7.70
2008,10,18,01,32,7.60
2008,10,18,01,33,7.60
2008,10,18,01,34,7.60
2008,10,18,01,35,7.60
2008,10,18,01,36,7.50
2008,10,18,01,37,7.50
2008,10,18,01,38,7.50
2008,10,18,01,39,7.40
2008,10,18,01,40,7.40
2008,10,18,01,41,7.40
2008,10,18,01,42,7.40
2008,10,18,01,43,7.30
2008,10,18,01,44,7.30
2008,10,18,01,45,7.30
2008,10,18,01,46,7.30
2008,10,18,01,47,7.20
2008,10,18,01,48,7.20
2008,10,18,01,49,7.20
2008,10,18,01,50,7.10
2008,10,18,01,51,7.10
2008,10,18,01,52,7.10
2008,10,18,01,53,7.00
2008,10,18,01,54,7.00
2008,10,18,01,55,7.00
2008,10,18,01,56,7.00
2008,10,18,01,57,7.00
2008,10,18,01,58,7.00
2008,10,18,01,59,7.00
2008,10,18,02,00,7.00
2008,10,18,02,01,7.00
2008,10,18,02,02,7.00
2008,10,18,02,03,7.00
2008,10,18,02,04,7.00
2008,10,18,02,05,7.00
2008,10,18,02,06,7.00
2008,10,18,02,07,7.00
2008,10,18,02,08,7.00
2008,10,18,02,09,7.00
2008,10,18,02,10,7.10
2008,10,18,02,11,7.10
2008,10,18,02,12,7.10
2008,10,18,02,13,7.10
2008,10,18,02,14,7.10
2008,10,18,02,15,7.10
2008,10,18,02,16,7.10
2008,10,18,02,17,7.00
2008,10,18,02,18,7.00
2008,10,18,02,19,7.00
2008,10,18,02,20,7.00
2008,10,18,02,21,7.00
2008,10,18,02,22,7.00
2008,10,18,02,23,7.00
2008,10,18,02,24,7.00
2008,10,18,02,25,7.00
2008,10,18,02,26,7.00
2008,10,18,02,27,7.00
2008,10,18,02,28,7.00
2008,10,18,02,29,7.00
2008,10,18,02,30,7.00
2008,10,18,02,31,7.00
2008,10,18,02,32,7.00
2008,10,18,02,33,7.00
2008,10,18,02,34,7.00
2008,10,18,02,35,6.90
2008,10,18,02,36,6.90
2008,10,18,02,37,6.90
2008,10,18,02,38,6.90
2008,10,18,02,39,6.90
2008,10,18,02,40,6.90
2008,10,18,02,41,6.90
2008,10,18,02,42,6.80
2008,10,18,02,43,6.80
2008,10,18,02,44,6.80
2008,10,18,02,45,6.70
2008,10,18,02,46,6.70
2008,10,18,02,47,6.70
2008,10,18,02,48,6.60
2008,10,18,02,49,6.60
2008,10,18,02,50,6.50
2008,10,18,02,51,6.30
2008,10,18,02,52,6.20
2008,10,18,02,53,6.10
2008,10,18,02,54,6.00
2008,10,18,02,55,5.90
2008,10,18,02,56,5.90
2008,10,18,02,57,5.80
2008,10,18,02,58,5.80
2008,10,18,02,59,5.70
2008,10,18,03,00,5.70
2008,10,18,03,01,5.70
2008,10,18,03,02,5.70
2008,10,18,03,03,5.70
2008,10,18,03,04,5.70
2008,10,18,03,05,5.70
2008,10,18,03,06,5.70
2008,10,18,03,07,5.60
2008,10,18,03,08,5.70
2008,10,18,03,09,5.70
2008,10,18,03,10,5.70
2008,10,18,03,11,5.70
2008,10,18,03,12,5.70
2008,10,18,03,13,5.70
2008,10,18,03,14,5.80
2008,10,18,03,15,5.70
2008,10,18,03,16,5.70
2008,10,18,03,17,5.60
2008,10,18,03,18,5.60
2008,10,18,03,19,5.60
2008,10,18,03,20,5.60
2008,10,18,03,21,5.50
2008,10,18,03,22,5.50
2008,10,18,03,23,5.50
2008,10,18,03,24,5.40
2008,10,18,03,25,5.40
2008,10,18,03,26,5.50
2008,10,18,03,27,5.50
2008,10,18,03,28,5.60
2008,10,18,03,29,5.60
2008,10,18,03,30,5.40
2008,10,18,03,31,5.30
2008,10,18,03,32,5.30
2008,10,18,03,33,5.20
2008,10,18,03,34,5.10
2008,10,18,03,35,5.10
2008,10,18,03,36,5.10
2008,10,18,03,37,5.10
2008,10,18,03,38,5.10
2008,10,18,03,39,5.00
2008,10,18,03,40,4.90
2008,10,18,03,41,5.00
2008,10,18,03,42,5.10
2008,10,18,03,43,5.10
2008,10,18,03,44,5.10
2008,10,18,03,45,5.10
2008,10,18,03,46,5.20
2008,10,18,03,47,5.30
2008,10,18,03,48,5.30
2008,10,18,03,49,5.30
2008,10,18,03,50,5.30
2008,10,18,03,51,5.30
2008,10,18,03,52,5.30
2008,10,18,03,53,5.30
2008,10,18,03,54,5.30
2008,10,18,03,55,5.30
2008,10,18,03,56,5.30
2008,10,18,03,57,5.30
2008,10,18,03,58,5.30
2008,10,18,03,59,5.30
2008,10,18,04,00,5.30
2008,10,18,04,01,5.30
2008,10,18,04,02,5.30
2008,10,18,04,03,5.20
2008,10,18,04,04,5.20
2008,10,18,04,05,5.20
2008,10,18,04,06,5.10
2008,10,18,04,07,5.10
2008,10,18,04,08,5.10
2008,10,18,04,09,5.10
2008,10,18,04,10,5.00
2008,10,18,04,11,4.90
2008,10,18,04,12,4.80
2008,10,18,04,13,4.80
2008,10,18,04,14,4.70
2008,10,18,04,15,4.60
2008,10,18,04,16,4.60
2008,10,18,04,17,4.60
2008,10,18,04,18,4.50
2008,10,18,04,19,4.60
2008,10,18,04,20,4.60
2008,10,18,04,21,4.70
2008,10,18,04,22,4.70
2008,10,18,04,23,4.80
2008,10,18,04,24,4.90
2008,10,18,04,25,4.90
2008,10,18,04,26,4.90
2008,10,18,04,27,4.90
2008,10,18,04,28,4.90
2008,10,18,04,29,4.90
2008,10,18,04,30,4.80
2008,10,18,04,31,4.80
2008,10,18,04,32,4.80
2008,10,18,04,33,4.70
2008,10,18,04,34,4.70
2008,10,18,04,35,4.70
2008,10,18,04,36,4.70
2008,10,18,04,37,4.70
2008,10,18,04,38,4.70
2008,10,18,04,39,4.70
2008,10,18,04,40,4.80
2008,10,18,04,41,4.80
2008,10,18,04,42,4.80
2008,10,18,04,43,4.90
2008,10,18,04,44,4.90
2008,10,18,04,45,4.90
2008,10,18,04,46,4.90
2008,10,18,04,47,4.90
2008,10,18,04,48,4.90
2008,10,18,04,49,4.80
2008,10,18,04,50,4.80
2008,10,18,04,51,4.70
2008,10,18,04,52,4.60
2008,10,18,04,53,4.40
2008,10,18,04,54,4.30
2008,10,18,04,55,4.10
2008,10,18,04,56,4.00
2008,10,18,04,57,4.00
2008,10,18,04,58,4.00
2008,10,18,04,59,4.00
2008,10,18,05,00,4.00
2008,10,18,05,01,4.00
2008,10,18,05,02,4.00
2008,10,18,05,03,4.00
2008,10,18,05,04,4.00
2008,10,18,05,05,4.00
2008,10,18,05,06,4.00
2008,10,18,05,07,4.00
2008,10,18,05,08,4.00
2008,10,18,05,09,4.10
2008,10,18,05,10,4.10
2008,10,18,05,11,4.10
2008,10,18,05,12,4.10
2008,10,18,05,13,4.00
2008,10,18,05,14,4.10
2008,10,18,05,15,4.10
2008,10,18,05,16,4.20
2008,10,18,05,17,4.30
2008,10,18,05,18,4.40
2008,10,18,05,19,4.50
2008,10,18,05,20,4.60
2008,10,18,05,21,4.60
2008,10,18,05,22,4.70
2008,10,18,05,23,4.70
2008,10,18,05,24,4.80
2008,10,18,05,25,4.80
2008,10,18,05,26,4.80
2008,10,18,05,27,4.80
2008,10,18,05,28,4.80
2008,10,18,05,29,4.80
2008,10,18,05,30,4.70
2008,10,18,05,31,4.70
2008,10,18,05,32,4.70
2008,10,18,05,33,4.70
2008,10,18,05,34,4.70
2008,10,18,05,35,4.70
2008,10,18,05,36,4.70
2008,10,18,05,37,4.60
2008,10,18,05,38,4.60
2008,10,18,05,39,4.50
2008,10,18,05,40,4.40
2008,10,18,05,41,4.40
2008,10,18,05,42,4.30
2008,10,18,05,43,4.30
2008,10,18,05,44,4.20
2008,10,18,05,45,4.30
2008,10,18,05,46,4.30
2008,10,18,05,47,4.30
2008,10,18,05,48,4.30
2008,10,18,05,49,4.40
2008,10,18,05,50,4.40
2008,10,18,05,51,4.40
2008,10,18,05,52,4.30
2008,10,18,05,53,4.10
2008,10,18,05,54,4.00
2008,10,18,05,55,3.90
2008,10,18,05,56,3.80
2008,10,18,05,57,3.80
2008,10,18,05,58,3.90
2008,10,18,05,59,3.90
2008,10,18,06,00,4.00
2008,10,18,06,01,4.00
2008,10,18,06,02,4.00
2008,10,18,06,03,4.00
2008,10,18,06,04,4.10
2008,10,18,06,05,4.10
2008,10,18,06,06,4.10
2008,10,18,06,07,4.20
2008,10,18,06,08,4.20
2008,10,18,06,09,4.20
2008,10,18,06,10,4.20
2008,10,18,06,11,4.20
2008,10,18,06,12,4.20
2008,10,18,06,13,4.20
2008,10,18,06,14,4.20
2008,10,18,06,15,4.20
2008,10,18,06,16,4.20
2008,10,18,06,17,4.10
2008,10,18,06,18,4.10
2008,10,18,06,19,4.10
2008,10,18,06,20,4.00
2008,10,18,06,21,3.90
2008,10,18,06,22,3.80
2008,10,18,06,23,3.70
2008,10,18,06,24,3.60
2008,10,18,06,25,3.50
2008,10,18,06,26,3.50
2008,10,18,06,27,3.40
2008,10,18,06,28,3.40
2008,10,18,06,29,3.30
2008,10,18,06,30,3.30
2008,10,18,06,31,3.30
2008,10,18,06,32,3.40
2008,10,18,06,33,3.40
2008,10,18,06,34,3.50
2008,10,18,06,35,3.50
2008,10,18,06,36,3.50
2008,10,18,06,37,3.60
2008,10,18,06,38,3.70
2008,10,18,06,39,3.70
2008,10,18,06,40,3.70
2008,10,18,06,41,3.70
2008,10,18,06,42,3.70
2008,10,18,06,43,3.70
2008,10,18,06,44,3.70
2008,10,18,06,45,3.70
2008,10,18,06,46,3.60
2008,10,18,06,47,3.60
2008,10,18,06,48,3.50
2008,10,18,06,49,3.40
2008,10,18,06,50,3.30
2008,10,18,06,51,3.30
2008,10,18,06,52,3.30
2008,10,18,06,53,3.30
2008,10,18,06,54,3.30
2008,10,18,06,55,3.30
2008,10,18,06,56,3.30
2008,10,18,06,57,3.30
2008,10,18,06,58,3.30
2008,10,18,06,59,3.30
2008,10,18,07,00,3.30
2008,10,18,07,01,3.30
2008,10,18,07,02,3.30
2008,10,18,07,03,3.30
2008,10,18,07,04,3.40
2008,10,18,07,05,3.50
2008,10,18,07,06,3.50
2008,10,18,07,07,3.60
2008,10,18,07,08,3.60
2008,10,18,07,09,3.60
2008,10,18,07,10,3.50
2008,10,18,07,11,3.40
2008,10,18,07,12,3.30
2008,10,18,07,13,3.30
2008,10,18,07,14,3.30
2008,10,18,07,15,3.30
2008,10,18,07,16,3.30
2008,10,18,07,17,3.30
2008,10,18,07,18,3.30
2008,10,18,07,19,3.30
2008,10,18,07,20,3.30
2008,10,18,07,21,3.30
2008,10,18,07,22,3.30
2008,10,18,07,23,3.30
2008,10,18,07,24,3.30
2008,10,18,07,25,3.30
2008,10,18,07,26,3.30
2008,10,18,07,27,3.40
2008,10,18,07,28,3.50
2008,10,18,07,29,3.50
2008,10,18,07,30,3.50
2008,10,18,07,31,3.50
2008,10,18,07,32,3.50
2008,10,18,07,33,3.50
2008,10,18,07,34,3.50
2008,10,18,07,35,3.50
2008,10,18,07,36,3.50
2008,10,18,07,37,3.50
2008,10,18,07,38,3.50
2008,10,18,07,39,3.50
2008,10,18,07,40,3.40
2008,10,18,07,41,3.40
2008,10,18,07,42,3.40
2008,10,18,07,43,3.40
2008,10,18,07,44,3.40
2008,10,18,07,45,3.40
2008,10,18,07,46,3.40
2008,10,18,07,47,3.50
2008,10,18,07,48,3.50
2008,10,18,07,49,3.50
2008,10,18,07,50,3.50
2008,10,18,07,51,3.60
2008,10,18,07,52,3.70
2008,10,18,07,53,3.70
2008,10,18,07,54,3.80
2008,10,18,07,55,3.80
2008,10,18,07,56,3.80
2008,10,18,07,57,3.80
2008,10,18,07,58,3.80
2008,10,18,07,59,3.80
2008,10,18,08,00,3.80
2008,10,18,08,01,3.80
2008,10,18,08,02,3.80
2008,10,18,08,03,3.70
2008,10,18,08,04,3.70
2008,10,18,08,05,3.70
2008,10,18,08,06,3.80
2008,10,18,08,07,3.90
2008,10,18,08,08,4.00
2008,10,18,08,09,4.00
2008,10,18,08,10,4.10
2008,10,18,08,11,4.20
2008,10,18,08,12,4.20
2008,10,18,08,13,4.30
2008,10,18,08,14,4.30
2008,10,18,08,15,4.40
2008,10,18,08,16,4.40
2008,10,18,08,17,4.40
2008,10,18,08,18,4.50
2008,10,18,08,19,4.50
2008,10,18,08,20,4.50
2008,10,18,08,21,4.40
2008,10,18,08,22,4.40
2008,10,18,08,23,4.50
2008,10,18,08,24,4.50
2008,10,18,08,25,4.50
2008,10,18,08,26,4.50
2008,10,18,08,27,4.60
2008,10,18,08,28,4.60
2008,10,18,08,29,4.60
2008,10,18,08,30,4.60
2008,10,18,08,31,4.70
2008,10,18,08,32,4.70
2008,10,18,08,33,4.80
2008,10,18,08,34,4.80
2008,10,18,08,35,4.90
2008,10,18,08,36,4.90
2008,10,18,08,37,4.90
2008,10,18,08,38,4.90
2008,10,18,08,39,4.90
2008,10,18,08,40,5.00
2008,10,18,08,41,5.10
2008,10,18,08,42,5.10
2008,10,18,08,43,5.10
2008,10,18,08,44,5.10
2008,10,18,08,45,5.10
2008,10,18,08,46,5.10
2008,10,18,08,47,5.10
2008,10,18,08,48,5.20
2008,10,18,08,49,5.20
2008,10,18,08,50,5.20
2008,10,18,08,51,5.30
2008,10,18,08,52,5.30
2008,10,18,08,53,5.30
2008,10,18,08,54,5.40
2008,10,18,08,55,5.40
2008,10,18,08,56,5.50
2008,10,18,08,57,5.50
2008,10,18,08,58,5.60
2008,10,18,08,59,5.60
2008,10,18,09,00,5.70
2008,10,18,09,01,5.70
2008,10,18,09,02,5.80
2008,10,18,09,03,5.80
2008,10,18,09,04,5.90
2008,10,18,09,05,5.90
2008,10,18,09,06,6.00
2008,10,18,09,07,6.00
2008,10,18,09,08,6.10
2008,10,18,09,09,6.10
2008,10,18,09,10,6.10
2008,10,18,09,11,6.10
2008,10,18,09,12,6.10
2008,10,18,09,13,6.10
2008,10,18,09,14,6.20
2008,10,18,09,15,6.20
2008,10,18,09,16,6.20
2008,10,18,09,17,6.30
2008,10,18,09,18,6.40
2008,10,18,09,19,6.40
2008,10,18,09,20,6.40
2008,10,18,09,21,6.50
2008,10,18,09,22,6.60
2008,10,18,09,23,6.60
2008,10,18,09,24,6.60
2008,10,18,09,25,6.70
2008,10,18,09,26,6.80
2008,10,18,09,27,6.90
2008,10,18,09,28,7.00
2008,10,18,09,29,7.00
2008,10,18,09,30,7.10
2008,10,18,09,31,7.10
2008,10,18,09,32,7.20
2008,10,18,09,33,7.30
2008,10,18,09,34,7.40
2008,10,18,09,35,7.50
2008,10,18,09,36,7.70
2008,10,18,09,37,7.80
2008,10,18,09,38,7.90
2008,10,18,09,39,8.10
2008,10,18,09,40,8.20
2008,10,18,09,41,8.30
2008,10,18,09,42,8.40
2008,10,18,09,43,8.50
2008,10,18,09,44,8.70
2008,10,18,09,45,8.70
2008,10,18,09,46,8.80
2008,10,18,09,47,8.90
2008,10,18,09,48,8.90
2008,10,18,09,49,9.00
2008,10,18,09,50,9.10
2008,10,18,09,51,9.10
2008,10,18,09,52,9.20
2008,10,18,09,53,9.30
2008,10,18,09,54,9.30
2008,10,18,09,55,9.30
2008,10,18,09,56,9.30
2008,10,18,09,57,9.40
2008,10,18,09,58,9.40
2008,10,18,09,59,9.40
2008,10,18,10,00,9.50
2008,10,18,10,01,9.60
2008,10,18,10,02,9.60
2008,10,18,10,03,9.70
2008,10,18,10,04,9.70
2008,10,18,10,05,9.70
2008,10,18,10,06,9.70
2008,10,18,10,07,9.80
2008,10,18,10,08,9.80
2008,10,18,10,09,9.90
2008,10,18,10,10,9.90
2008,10,18,10,11,9.90
2008,10,18,10,12,10.00
2008,10,18,10,13,10.10
2008,10,18,10,14,10.10
2008,10,18,10,15,10.10
2008,10,18,10,16,10.10
2008,10,18,10,17,10.20
2008,10,18,10,18,10.20
2008,10,18,10,19,10.30
2008,10,18,10,20,10.40
2008,10,18,10,21,10.40
2008,10,18,10,22,10.50
2008,10,18,10,23,10.60
2008,10,18,10,24,10.60
2008,10,18,10,25,10.60
2008,10,18,10,26,10.70
2008,10,18,10,27,10.80
2008,10,18,10,28,10.90
2008,10,18,10,29,10.90
2008,10,18,10,30,11.00
2008,10,18,10,31,11.10
2008,10,18,10,32,11.20
2008,10,18,10,33,11.30
2008,10,18,10,34,11.40
2008,10,18,10,35,11.40
2008,10,18,10,36,11.50
2008,10,18,10,37,11.60
2008,10,18,10,38,11.70
2008,10,18,10,39,11.80
2008,10,18,10,40,11.80
2008,10,18,10,41,11.90
2008,10,18,10,42,11.90
2008,10,18,10,43,12.00
2008,10,18,10,44,12.10
2008,10,18,10,45,12.10
2008,10,18,10,46,12.20
2008,10,18,10,47,12.20
2008,10,18,10,48,12.10
2008,10,18,10,49,12.10
2008,10,18,10,50,12.00
2008,10,18,10,51,12.00
2008,10,18,10,52,12.00
2008,10,18,10,53,12.10
2008,10,18,10,54,12.10
2008,10,18,10,55,12.20
2008,10,18,10,56,12.20
2008,10,18,10,57,12.20
2008,10,18,10,58,12.30
2008,10,18,10,59,12.30
2008,10,18,11,00,12.40
2008,10,18,11,01,12.50
2008,10,18,11,02,12.50
2008,10,18,11,03,12.60
2008,10,18,11,04,12.60
2008,10,18,11,05,12.70
2008,10,18,11,06,12.70
2008,10,18,11,07,12.70
2008,10,18,11,08,12.80
2008,10,18,11,09,12.80
2008,10,18,11,10,12.80
2008,10,18,11,11,12.80
2008,10,18,11,12,12.70
2008,10,18,11,13,12.70
2008,10,18,11,14,12.60
2008,10,18,11,15,12.60
2008,10,18,11,16,12.60
2008,10,18,11,17,12.50
2008,10,18,11,18,12.50
2008,10,18,11,19,12.50
2008,10,18,11,20,12.50
2008,10,18,11,21,12.50
2008,10,18,11,22,12.50
2008,10,18,11,23,12.60
2008,10,18,11,24,12.60
2008,10,18,11,25,12.40
2008,10,18,11,26,12.30
2008,10,18,11,27,12.30
2008,10,18,11,28,12.30
2008,10,18,11,29,12.40
2008,10,18,11,30,12.50
2008,10,18,11,31,12.60
2008,10,18,11,32,12.60
2008,10,18,11,33,12.60
2008,10,18,11,34,12.70
2008,10,18,11,35,12.80
2008,10,18,11,36,12.90
2008,10,18,11,37,12.90
2008,10,18,11,38,13.00
2008,10,18,11,39,13.00
2008,10,18,11,40,13.00
2008,10,18,11,41,13.00
2008,10,18,11,42,12.90
2008,10,18,11,43,12.90
2008,10,18,11,44,12.90
2008,10,18,11,45,13.00
2008,10,18,11,46,13.00
2008,10,18,11,47,13.00
2008,10,18,11,48,13.10
2008,10,18,11,49,13.10
2008,10,18,11,50,13.20
2008,10,18,11,51,13.20
2008,10,18,11,52,13.20
2008,10,18,11,53,13.30
2008,10,18,11,54,13.30
2008,10,18,11,55,13.30
2008,10,18,11,56,13.30
2008,10,18,11,57,13.30
2008,10,18,11,58,13.30
2008,10,18,11,59,13.30
2008,10,18,12,00,13.30
2008,10,18,12,01,13.30
2008,10,18,12,02,13.30
2008,10,18,12,03,13.30
2008,10,18,12,04,13.30
2008,10,18,12,05,13.40
2008,10,18,12,06,13.40
2008,10,18,12,07,13.40
2008,10,18,12,08,13.50
2008,10,18,12,09,13.50
2008,10,18,12,10,13.50
2008,10,18,12,11,13.60
2008,10,18,12,12,13.60
2008,10,18,12,13,13.70
2008,10,18,12,14,13.70
2008,10,18,12,15,13.70
2008,10,18,12,16,13.80
2008,10,18,12,17,13.80
2008,10,18,12,18,13.90
2008,10,18,12,19,14.00
2008,10,18,12,20,14.10
2008,10,18,12,21,14.00
2008,10,18,12,22,14.00
2008,10,18,12,23,13.90
2008,10,18,12,24,13.80
2008,10,18,12,25,13.60
2008,10,18,12,26,13.50
2008,10,18,12,27,13.40
2008,10,18,12,28,13.30
2008,10,18,12,29,13.30
2008,10,18,12,30,13.30
2008,10,18,12,31,13.30
2008,10,18,12,32,13.30
2008,10,18,12,33,13.30
2008,10,18,12,34,13.30
2008,10,18,12,35,13.30
2008,10,18,12,36,13.30
2008,10,18,12,37,13.30
2008,10,18,12,38,13.20
2008,10,18,12,39,13.10
2008,10,18,12,40,13.00
2008,10,18,12,41,13.00
2008,10,18,12,42,12.90
2008,10,18,12,43,12.80
2008,10,18,12,44,12.80
2008,10,18,12,45,12.70
2008,10,18,12,46,12.70
2008,10,18,12,47,12.70
2008,10,18,12,48,12.70
2008,10,18,12,49,12.60
2008,10,18,12,50,12.60
2008,10,18,12,51,12.50
2008,10,18,12,52,12.40
2008,10,18,12,53,12.30
2008,10,18,12,54,12.30
2008,10,18,12,55,12.20
2008,10,18,12,56,12.20
2008,10,18,12,57,12.10
2008,10,18,12,58,12.20
2008,10,18,12,59,12.20
2008,10,18,13,00,12.20
2008,10,18,13,01,12.30
2008,10,18,13,02,12.30
2008,10,18,13,03,12.30
2008,10,18,13,04,12.40
2008,10,18,13,05,12.40
2008,10,18,13,06,12.40
2008,10,18,13,07,12.40
2008,10,18,13,08,12.40
2008,10,18,13,09,12.40
2008,10,18,13,10,12.30
2008,10,18,13,11,12.20
2008,10,18,13,12,12.20
2008,10,18,13,13,12.10
2008,10,18,13,14,12.10
2008,10,18,13,15,12.10
2008,10,18,13,16,12.10
2008,10,18,13,17,12.10
2008,10,18,13,18,12.00
2008,10,18,13,19,11.90
2008,10,18,13,20,11.90
2008,10,18,13,21,11.80
2008,10,18,13,22,11.80
2008,10,18,13,23,11.80
2008,10,18,13,24,11.80
2008,10,18,13,25,11.80
2008,10,18,13,26,11.80
2008,10,18,13,27,11.80
2008,10,18,13,28,11.80
2008,10,18,13,29,11.80
2008,10,18,13,30,11.80
2008,10,18,13,31,11.90
2008,10,18,13,32,12.00
2008,10,18,13,33,12.00
2008,10,18,13,34,12.10
2008,10,18,13,35,12.20
2008,10,18,13,36,12.30
2008,10,18,13,37,12.30
2008,10,18,13,38,12.30
2008,10,18,13,39,12.50
2008,10,18,13,40,12.60
2008,10,18,13,41,12.60
2008,10,18,13,42,12.80
2008,10,18,13,43,12.80
2008,10,18,13,44,12.90
2008,10,18,13,45,13.00
2008,10,18,13,46,13.10
2008,10,18,13,47,13.10
2008,10,18,13,48,13.30
2008,10,18,13,49,13.30
2008,10,18,13,50,13.30
2008,10,18,13,51,13.30
2008,10,18,13,52,13.20
2008,10,18,13,53,13.20
2008,10,18,13,54,13.30
2008,10,18,13,55,13.40
2008,10,18,13,56,13.40
2008,10,18,13,57,13.40
2008,10,18,13,58,13.20
2008,10,18,13,59,13.20
2008,10,18,14,00,13.20
2008,10,18,14,01,13.10
2008,10,18,14,02,13.00
2008,10,18,14,03,13.00
2008,10,18,14,04,12.90
2008,10,18,14,05,12.80
2008,10,18,14,06,12.80
2008,10,18,14,07,12.80
2008,10,18,14,08,12.60
2008,10,18,14,09,12.50
2008,10,18,14,10,12.40
2008,10,18,14,11,12.50
2008,10,18,14,12,12.60
2008,10,18,14,13,12.70
2008,10,18,14,14,12.70
2008,10,18,14,15,12.70
2008,10,18,14,16,12.70
2008,10,18,14,17,12.80
2008,10,18,14,18,12.80
2008,10,18,14,19,12.80
2008,10,18,14,20,12.90
2008,10,18,14,21,13.00
2008,10,18,14,22,13.10
2008,10,18,14,23,13.10
2008,10,18,14,24,13.10
2008,10,18,14,25,13.00
2008,10,18,14,26,12.90
2008,10,18,14,27,12.80
2008,10,18,14,28,12.80
2008,10,18,14,29,12.90
2008,10,18,14,30,12.90
2008,10,18,14,31,12.90
2008,10,18,14,32,12.70
2008,10,18,14,33,12.60
2008,10,18,14,34,12.50
2008,10,18,14,35,12.60
2008,10,18,14,36,12.60
2008,10,18,14,37,12.70
2008,10,18,14,38,12.70
2008,10,18,14,39,12.80
2008,10,18,14,40,12.90
2008,10,18,14,41,13.00
2008,10,18,14,42,13.10
2008,10,18,14,43,13.20
2008,10,18,14,44,13.10
2008,10,18,14,45,13.10
2008,10,18,14,46,13.10
2008,10,18,14,47,13.30
2008,10,18,14,48,13.30
2008,10,18,14,49,13.30
2008,10,18,14,50,13.30
2008,10,18,14,51,13.20
2008,10,18,14,52,13.10
2008,10,18,14,53,13.00
2008,10,18,14,54,13.00
2008,10,18,14,55,13.00
2008,10,18,14,56,13.00
2008,10,18,14,57,13.10
2008,10,18,14,58,13.10
2008,10,18,14,59,13.10
2008,10,18,15,00,13.00
2008,10,18,15,01,12.90
2008,10,18,15,02,12.80
2008,10,18,15,03,12.70
2008,10,18,15,04,12.70
2008,10,18,15,05,12.60
2008,10,18,15,06,12.60
2008,10,18,15,07,12.70
2008,10,18,15,08,12.80
2008,10,18,15,09,12.70
2008,10,18,15,10,12.70
2008,10,18,15,11,12.60
2008,10,18,15,12,12.60
2008,10,18,15,13,12.60
2008,10,18,15,14,12.60
2008,10,18,15,15,12.70
2008,10,18,15,16,12.80
2008,10,18,15,17,13.00
2008,10,18,15,18,13.10
2008,10,18,15,19,13.30
2008,10,18,15,20,13.40
2008,10,18,15,21,13.50
2008,10,18,15,22,13.60
2008,10,18,15,23,13.70
2008,10,18,15,24,13.70
2008,10,18,15,25,13.70
2008,10,18,15,26,13.60
2008,10,18,15,27,13.60
2008,10,18,15,28,13.60
2008,10,18,15,29,13.60
2008,10,18,15,30,13.60
2008,10,18,15,31,13.70
2008,10,18,15,32,13.80
2008,10,18,15,33,13.80
2008,10,18,15,34,13.90
2008,10,18,15,35,13.90
2008,10,18,15,36,13.90
2008,10,18,15,37,13.90
2008,10,18,15,38,13.90
2008,10,18,15,39,14.00
2008,10,18,15,40,13.90
2008,10,18,15,41,13.90
2008,10,18,15,42,13.90
2008,10,18,15,43,13.90
2008,10,18,15,44,13.90
2008,10,18,15,45,14.00
2008,10,18,15,46,14.00
2008,10,18,15,47,14.00
2008,10,18,15,48,13.90
2008,10,18,15,49,13.90
2008,10,18,15,50,13.80
2008,10,18,15,51,13.80
2008,10,18,15,52,13.80
2008,10,18,15,53,13.70
2008,10,18,15,54,13.70
2008,10,18,15,55,13.70
2008,10,18,15,56,13.70
2008,10,18,15,57,13.70
2008,10,18,15,58,13.70
2008,10,18,15,59,13.60
2008,10,18,16,00,13.50
2008,10,18,16,01,13.40
2008,10,18,16,02,13.30
2008,10,18,16,03,13.30
2008,10,18,16,04,13.20
2008,10,18,16,05,13.00
2008,10,18,16,06,12.90
2008,10,18,16,07,12.80
2008,10,18,16,08,12.80
2008,10,18,16,09,12.80
2008,10,18,16,10,12.80
2008,10,18,16,11,12.70
2008,10,18,16,12,12.70
2008,10,18,16,13,12.60
2008,10,18,16,14,12.50
2008,10,18,16,15,12.50
2008,10,18,16,16,12.40
2008,10,18,16,17,12.40
2008,10,18,16,18,12.30
2008,10,18,16,19,12.30
2008,10,18,16,20,12.30
2008,10,18,16,21,12.30
2008,10,18,16,22,12.30
2008,10,18,16,23,12.40
2008,10,18,16,24,12.40
2008,10,18,16,25,12.40
2008,10,18,16,26,12.40
2008,10,18,16,27,12.40
2008,10,18,16,28,12.50
2008,10,18,16,29,12.50
2008,10,18,16,30,12.60
2008,10,18,16,31,12.70
2008,10,18,16,32,12.70
2008,10,18,16,33,12.70
2008,10,18,16,34,12.80
2008,10,18,16,35,12.70
2008,10,18,16,36,12.70
2008,10,18,16,37,12.60
2008,10,18,16,38,12.60
2008,10,18,16,39,12.60
2008,10,18,16,40,12.60
2008,10,18,16,41,12.60
2008,10,18,16,42,12.60
2008,10,18,16,43,12.60
2008,10,18,16,44,12.60
2008,10,18,16,45,12.50
2008,10,18,16,46,12.40
2008,10,18,16,47,12.40
2008,10,18,16,48,12.40
2008,10,18,16,49,12.30
2008,10,18,16,50,12.30
2008,10,18,16,51,12.30
2008,10,18,16,52,12.30
2008,10,18,16,53,12.30
2008,10,18,16,54,12.30
2008,10,18,16,55,12.30
2008,10,18,16,56,12.30
2008,10,18,16,57,12.20
2008,10,18,16,58,12.10
2008,10,18,16,59,12.00
2008,10,18,17,00,12.00
2008,10,18,17,01,11.90
2008,10,18,17,02,11.90
2008,10,18,17,03,11.90
2008,10,18,17,04,11.80
2008,10,18,17,05,11.80
2008,10,18,17,06,11.80
2008,10,18,17,07,11.80
2008,10,18,17,08,11.80
2008,10,18,17,09,11.80
2008,10,18,17,10,11.80
2008,10,18,17,11,11.80
2008,10,18,17,12,11.80
2008,10,18,17,13,11.80
2008,10,18,17,14,11.80
2008,10,18,17,15,11.80
2008,10,18,17,16,11.80
2008,10,18,17,17,11.80
2008,10,18,17,18,11.80
2008,10,18,17,19,11.80
2008,10,18,17,20,11.80
2008,10,18,17,21,11.70
2008,10,18,17,22,11.70
2008,10,18,17,23,11.70
2008,10,18,17,24,11.70
2008,10,18,17,25,11.60
2008,10,18,17,26,11.60
2008,10,18,17,27,11.60
2008,10,18,17,28,11.60
2008,10,18,17,29,11.60
2008,10,18,17,30,11.60
2008,10,18,17,31,11.50
2008,10,18,17,32,11.40
2008,10,18,17,33,11.40
2008,10,18,17,34,11.40
2008,10,18,17,35,11.40
2008,10,18,17,36,11.30
2008,10,18,17,37,11.30
2008,10,18,17,38,11.20
2008,10,18,17,39,11.20
2008,10,18,17,40,11.10
2008,10,18,17,41,11.10
2008,10,18,17,42,11.10
2008,10,18,17,43,11.10
2008,10,18,17,44,10.90
2008,10,18,17,45,10.90
2008,10,18,17,46,10.90